Weather History for Inverness, FL

Change the Weather History Date:

Thursday, December 13, 2012

  Actual Average (KOCF) Record (KOCF)
Temperature  
Mean Temperature 56 °F -  
Max Temperature 60 °F 68 °F 82 °F (2000)
Min Temperature 51 °F 45 °F 30 °F (2010)
Degree Days  
Heating Degree Days 10    
Growing Degree Days 6 (Base 50)    
Moisture  
Dew Point 56 °F    
Average Humidity 94    
Maximum Humidity 100    
Minimum Humidity 82    
Precipitation  
Precipitation 0.00 in - - ()
Sea Level Pressure  
Sea Level Pressure 30.18 in    
Wind  
Wind Speed 5 mph (NNE)    
Max Wind Speed 13 mph    
Max Gust Speed 17 mph    
Visibility 7 miles    
Events Fog    
Averages and records for this station are not official NWS values.
T = Trace of Precipitation, MM = Missing Value Source: NWS Daily Summary

Daily Weather History Graph

Daily Weather History Graph

Search for Another Location

Airport:

Trip Planner

Search our weather history database for the weather conditions in past years. The results will help you decide how hot, cold, wet, or windy it might be!

Date:

Astronomy

Dec. 13, 2012 Rise Set
Actual Time 7:13 AM EST 5:33 PM EST
Civil Twilight 6:47 AM EST 5:59 PM EST
Nautical Twilight 6:18 AM EST 6:29 PM EST
Astronomical Twilight 5:49 AM EST 6:57 PM EST
Moon 7:22 AM EST (12/13) 6:12 PM EST (12/13)
Length of Visible Light 11h 11m
Length of Day
10h 19m
New Moon, 0% of the Moon is Illuminated
Dec 13
New Moon
Dec 20
First Quarter
Dec 28
Full
Jan 4
Last Quarter
Jan 11
New

Hourly Weather History & Observations

Time (EST) Temp. Dew Point Humidity Pressure Visibility Wind Dir Wind Speed Gust Speed Precip Events Conditions
12:15 AM 60.8 °F 60.8 °F 100% 30.11 in 0.8 mi Calm Calm - N/A   Overcast
12:35 AM 60.8 °F 60.8 °F 100% 30.11 in 0.5 mi North 3.5 mph - N/A Fog Fog
12:55 AM 60.8 °F 60.8 °F 100% 30.11 in 0.8 mi Calm Calm - N/A   Overcast
1:15 AM 60.8 °F 60.8 °F 100% 30.10 in 0.5 mi North 3.5 mph - N/A Fog Fog
1:35 AM 60.8 °F 60.8 °F 100% 30.10 in 0.8 mi North 3.5 mph - N/A   Overcast
1:55 AM 60.8 °F 60.8 °F 100% 30.10 in 0.8 mi North 4.6 mph - N/A   Overcast
2:15 AM 60.8 °F 60.8 °F 100% 30.10 in 2.5 mi NNW 3.5 mph - N/A   Overcast
2:35 AM 60.8 °F 60.8 °F 100% 30.09 in 4.0 mi North 3.5 mph - N/A   Overcast
2:55 AM 60.8 °F 60.8 °F 100% 30.10 in 2.5 mi North 3.5 mph - N/A   Overcast
3:15 AM 60.8 °F 60.8 °F 100% 30.10 in 2.5 mi North 4.6 mph - N/A   Overcast
3:35 AM 60.8 °F 60.8 °F 100% 30.10 in 3.0 mi North 5.8 mph - N/A   Overcast
3:55 AM 60.8 °F 60.8 °F 100% 30.10 in 2.5 mi North 3.5 mph - N/A   Overcast
4:15 AM 60.8 °F 60.8 °F 100% 30.11 in 2.5 mi NNW 3.5 mph - N/A   Overcast
4:35 AM 59.0 °F 59.0 °F 100% 30.11 in 3.0 mi North 5.8 mph - N/A   Overcast
4:55 AM 59.0 °F 59.0 °F 100% 30.11 in 3.0 mi North 6.9 mph - N/A   Light Drizzle
5:15 AM 59.0 °F 59.0 °F 100% 30.12 in 4.0 mi North 3.5 mph - N/A   Overcast
5:35 AM 59.0 °F 59.0 °F 100% 30.12 in 5.0 mi North 4.6 mph - N/A   Overcast
5:55 AM 59.0 °F 59.0 °F 100% 30.13 in 7.0 mi North 3.5 mph - N/A   Overcast
6:15 AM 59.0 °F 59.0 °F 100% 30.14 in 7.0 mi North 6.9 mph - N/A   Overcast
6:35 AM 59.0 °F 59.0 °F 100% 30.15 in 4.0 mi North 5.8 mph - N/A   Overcast
6:55 AM 59.0 °F 57.2 °F 94% 30.16 in 2.5 mi North 4.6 mph - N/A   Overcast
7:15 AM 57.2 °F 57.2 °F 100% 30.16 in 2.5 mi NNE 4.6 mph - N/A   Overcast
7:35 AM 59.0 °F 59.0 °F 100% 30.16 in 5.0 mi North 3.5 mph - N/A   Overcast
7:55 AM 59.0 °F 59.0 °F 100% 30.18 in 7.0 mi North 6.9 mph - N/A   Overcast
8:35 AM 57.2 °F 57.2 °F 100% 30.20 in 5.0 mi North 5.8 mph - N/A   Overcast
8:55 AM 57.2 °F 57.2 °F 100% 30.20 in 7.0 mi North 6.9 mph - N/A   Overcast
9:15 AM 57.2 °F 57.2 °F 100% 30.21 in 7.0 mi North 6.9 mph - N/A   Overcast
9:35 AM 57.2 °F 57.2 °F 100% 30.22 in 7.0 mi North 8.1 mph - N/A   Overcast
9:55 AM 57.2 °F 55.4 °F 94% 30.22 in 10.0 mi NNE 9.2 mph - N/A   Overcast
10:15 AM 57.2 °F 55.4 °F 94% 30.23 in 4.0 mi North 9.2 mph - N/A   Overcast
10:35 AM 57.2 °F 55.4 °F 94% 30.23 in 7.0 mi North 10.4 mph - N/A   Overcast
10:55 AM 57.2 °F 55.4 °F 94% 30.23 in 10.0 mi NE 9.2 mph - N/A   Overcast
11:15 AM 59.0 °F 55.4 °F 88% 30.23 in 10.0 mi NNE 8.1 mph - N/A   Overcast
11:35 AM 59.0 °F 55.4 °F 88% 30.22 in 10.0 mi NNE 10.4 mph - N/A   Overcast
11:55 AM 59.0 °F 55.4 °F 88% 30.22 in 10.0 mi NNE 9.2 mph - N/A   Overcast
12:15 PM 59.0 °F 55.4 °F 88% 30.22 in 10.0 mi NNE 8.1 mph - N/A   Overcast
12:35 PM 59.0 °F 55.4 °F 88% 30.21 in 10.0 mi NNE 8.1 mph - N/A   Overcast
12:55 PM 59.0 °F 55.4 °F 88% 30.21 in 10.0 mi North 8.1 mph - N/A   Overcast
1:15 PM 59.0 °F 55.4 °F 88% 30.20 in 10.0 mi NNE 5.8 mph - N/A   Overcast
1:35 PM 59.0 °F 55.4 °F 88% 30.20 in 10.0 mi North 9.2 mph - N/A   Overcast
1:55 PM 59.0 °F 53.6 °F 82% 30.19 in 10.0 mi NNE 9.2 mph - N/A   Overcast
2:15 PM 59.0 °F 53.6 °F 82% 30.19 in 10.0 mi NNE 11.5 mph - N/A   Overcast
2:35 PM 59.0 °F 53.6 °F 82% 30.19 in 10.0 mi NE 12.7 mph 16.1 mph N/A   Overcast
2:55 PM 59.0 °F 53.6 °F 82% 30.18 in 10.0 mi NNE 11.5 mph - N/A   Overcast
3:15 PM 59.0 °F 53.6 °F 82% 30.18 in 10.0 mi NNE 9.2 mph - N/A   Overcast
3:35 PM 59.0 °F 53.6 °F 82% 30.19 in 10.0 mi NNE 9.2 mph - N/A   Overcast
3:55 PM 57.2 °F 53.6 °F 88% 30.19 in 10.0 mi ENE 9.2 mph - N/A   Overcast
4:15 PM 57.2 °F 51.8 °F 82% 30.19 in 10.0 mi ENE 8.1 mph - N/A   Overcast
4:35 PM 55.4 °F 51.8 °F 88% 30.19 in 10.0 mi NNE 8.1 mph 16.1 mph N/A   Overcast
4:55 PM 55.4 °F 51.8 °F 88% 30.19 in 10.0 mi NNE 9.2 mph - N/A   Overcast
5:15 PM 55.4 °F 51.8 °F 88% 30.20 in 10.0 mi NNE 10.4 mph - N/A   Overcast
5:35 PM 55.4 °F 51.8 °F 88% 30.21 in 10.0 mi NNE 8.1 mph - N/A   Overcast
8:15 PM 53.6 °F 50.0 °F 88% 30.25 in 10.0 mi NE 10.4 mph - N/A   Overcast
8:35 PM 53.6 °F 50.0 °F 88% 30.25 in 10.0 mi NNE 8.1 mph - N/A   Overcast
8:55 PM 53.6 °F 50.0 °F 88% 30.25 in 10.0 mi NNE 11.5 mph 17.3 mph N/A   Overcast
9:15 PM 53.6 °F 50.0 °F 88% 30.26 in 10.0 mi NE 9.2 mph - N/A   Overcast
9:35 PM 51.8 °F 50.0 °F 94% 30.26 in 10.0 mi NE 10.4 mph - N/A   Overcast
9:55 PM 51.8 °F 50.0 °F 94% 30.26 in 10.0 mi NE 10.4 mph - N/A   Overcast
10:15 PM 51.8 °F 50.0 °F 94% 30.26 in 10.0 mi NNE 8.1 mph - N/A   Overcast
10:35 PM 51.8 °F 50.0 °F 94% 30.25 in 10.0 mi North 8.1 mph - N/A   Overcast
10:55 PM 51.8 °F 50.0 °F 94% 30.25 in 10.0 mi North 8.1 mph - N/A   Overcast
11:15 PM 51.8 °F 50.0 °F 94% 30.24 in 10.0 mi North 9.2 mph - N/A   Overcast
11:35 PM 51.8 °F 50.0 °F 94% 30.24 in 10.0 mi NNE 11.5 mph 16.1 mph N/A   Overcast
11:55 PM 51.8 °F 50.0 °F 94% 30.24 in 10.0 mi NNE 8.1 mph - N/A   Overcast